Weather in Italmas

Russia / Udmurt Republic     56°54′57″N   53°28′33″E
temp.,
°C
wind,
m/s
gust,
m/s
humid.,
%
clouds,
%
prec.,
mm/h
press.,
hPa
HPBL,
m
23 april, fri
fri2301:00+4s499597 0.0 1027421
04:00+2sse3895100 0.0 1027281
07:00+3s3893100 0.0 1028312
10:00+4s3687100 0.0 1028397
13:00+6s258171 0.0 1028294
16:00+10sse346350 0.0 1027887
19:00+9ese477362 0.0 1026291
22:00+6e3787100 0.0 1025155
24 april, sat
sat2401:00+4e3891100 0.0 1024190
04:00+5e3790100 0.0 1022243
07:00+5e3796100 0.5 1020243
10:00+6ene3797100 2.0 1018337
13:00+6e3796100 1.1 1017387
16:00+6e3796100 1.9 1015446
19:00+6ese4794100 1.1 1014938
22:00+5se4897100 2.1 1013786
25 april, sun
sun2501:00+5se4897100 0.1 1011681
04:00+5se4797100 0.4 1010788
07:00+5se51095100 0.2 1008523
10:00+6se5992100 1.1 1005921
13:00+4wsw71396100 5.5 1006719
16:00+7sw6117099 6.8 10071388
19:00+6sw51066100 0.4 1008634
22:00+4wsw51193100 0.6 1010747
26 april, mon
mon2601:00+3sw4129132 0.1 1012490
04:00+3wsw512845 0.1 1013616
07:00+3sw511825 0.0 1015616
10:00+7sw6125787 0.0 10151667
13:00+9sw81558100 0.4 10142038
16:00+9wsw7145946 1.1 10141803
19:00+8wsw5116581 0.3 10141003
22:00+6wsw41071100 0.3 1014767
27 april, tue
tue2701:00+4w2280100 0.0 101314
04:00+3ne1181100 0.0 101110
07:00+5e1173100 0.0 101095
10:00+10e11495 0.0 1008897
13:00+12w124280 0.0 10071821
16:00+12ssw3241100 0.0 10051821
19:00+9sse366199 0.1 1005232
22:00+7se4117692 0.8 1003421